Weather in Snegurovka

Russia / Primorsky Krai     44°04′58″N   132°35′03″E
temp.,
°C
wind,
m/s
gust,
m/s
humid.,
%
clouds,
%
prec.,
mm/h
press.,
hPa
HPBL,
m
22 june, tue
tue2201:00+12wsw2295100 0.0 101024
04:00+11w1195100 0.0 101111
07:00+12nw119417 0.0 101284
10:00+17nnw117618 0.0 1012625
13:00+20nw226478 0.0 10111232
16:00+21nnw226928 0.4 1010624
19:00+21wnw12805 1.3 1010597
22:00+15sw11905 1.4 101211
23 june, wed
wed2301:00+13s11920 0.0 101210
04:00+12s11930 0.0 101210
07:00+14sse11925 0.0 101345
10:00+19nnw117738 0.0 1012475
13:00+23nnw23642 0.0 10111022
16:00+24nnw43611 0.0 1009848
19:00+22wnw13820 0.6 1009174
22:00+15s22926 0.6 101112
24 june, thu
thu2401:00+13s229242 0.0 101112
04:00+12s1190100 0.0 101011
07:00+14s12907 0.0 101159
10:00+21sw12705 0.0 1010412
13:00+24wnw32615 0.0 1008650
16:00+26wnw23531 0.0 1007730
19:00+23sw47701 0.0 1007260
22:00+15sse228256 0.0 100914
25 june, fri
fri2501:00+14s228513 0.0 100914
04:00+13sse228392 0.1 100914
07:00+16s248252 0.1 1009124
10:00+22sw466376 0.1 1009624
13:00+25ssw455624 0.0 1008782
16:00+27ssw45525 0.0 10071025
19:00+22ssw47660 0.0 1008272
22:00+17s486922 0.0 1009198
26 june, sat
sat2601:00+14sse2383100 0.0 101138
04:00+13se228465 0.0 101027
07:00+15sse2378100 0.0 101169
10:00+22ssw465796 0.0 1011725
13:00+25sw4548100 0.0 10101174
16:00+25sw5755100 0.0 1008848
19:00+20ssw4868100 0.0 1009391
22:00+16s2275100 0.0 101014